Regional Weather Roundup
Issued by NWS

Home | Current Version | Previous Version | Graphics & Text | Print | Product List | Glossary On
Versions: 1 2 3 4 5 6 7 8 9 10 11 12 13 14 15 16 17 18 19 20 21 22 23 24 25 26 27 28 29 30 31 32 33 34 35 36 37 38 39 40 41 42 43 44 45 46 47 48 49 50
000
ASUS45 KSLC 240310
RWRUT

UTAH REGIONAL WEATHER ROUNDUP
NATIONAL WEATHER SERVICE SALT LAKE CITY UT
900 PM MDT TUE AUG 23 2016

UTZ001>011-023>025-240400-

NORTHERN UTAH

CITY           SKY/WX    TMP DP  RH WIND       PRES   REMARKS
BRIGHAM CITY     N/A     77   7   7 N22G30    30.07R
HILL AFB       CLEAR     76  28  17 E5        30.07R
LOGAN          CLEAR     67  29  24 NE5       30.09R
OGDEN          CLEAR     75  26  16 N12       30.05R
PROVO AIRPORT  CLEAR     73  52  46 NW3       30.05R
SALT LAKE CITY PTCLDY    79  31  17 N8        30.02R
VERNAL         CLOUDY    69  42  37 W3        30.12R
WENDOVER       CLEAR     81  21  11 N18       30.05R
HEBER CITY     PTCLDY    64  32  29 NE5       30.12R
WEST JORDAN    CLEAR     74  36  25 W5        30.06R

$$

UTZ012>022-026-027-240400-

SOUTHERN/CENTRAL UTAH

CITY           SKY/WX    TMP DP  RH WIND       PRES   REMARKS
BLANDING       MOCLDY    56  51  85 N6        30.31S
BRYCE CANYON   CLOUDY    52  47  83 W7        30.34R
CEDAR CITY     CLOUDY    69  40  34 S14       30.21R
DELTA          MOCLDY    73  34  23 CALM      30.07R
MILFORD        CLOUDY    71  46  40 E10       30.11R
MOAB/CYNLANDS  CLOUDY    65  55  70 SW20      30.10F
PRICE          MOCLDY    67  40  37 E8        30.20R
ST GEORGE      MOCLDY    79  48  34 NW23G29   30.11R

$$

REGIONAL REPORTS     COLORADO/ARIZONA

CITY           SKY/WX    TMP DP  RH WIND       PRES   REMARKS
CRAIG, CO      CLOUDY    61  43  51 S22       30.23R
GRAND JUNCTION CLOUDY    72  46  39 SE16      30.14R
RIFLE          LGT RAIN  59  53  80 SE14      30.25S
MONTROSE       LGT RAIN  60  50  69 SE16      30.27R
CORTEZ         CLOUDY    55  52  89 N6        30.23S
PAGE, AZ       CLOUDY    75  47  36 SW6       30.11R
GRAND CANYON   CLOUDY    60  52  74 W3        30.30S
KINGMAN        CLEAR     76  63  64 S8        30.09R
FLAGSTAFF      LGT RAIN  54  50  86 NE12      30.35R

$$

REGIONAL REPORTS    NEVADA/IDAHO/WYOMING

CITY           SKY/WX    TMP DP  RH WIND       PRES   REMARKS
LAS VEGAS, NV  NOT AVBL
ELY            PTCLDY    70  28  21 NW8       30.19R
ELKO           CLEAR     77  10   7 NW10      30.11R
POCATELLO, ID  CLEAR     64  24  21 SW9       30.11R
BURLEY         CLEAR     64  29  26 W15       30.07S
EVANSTON, WY   CLEAR     61  20  20 W9        30.25R
ROCK SPRINGS   CLOUDY    66  17  15 NW9       30.21R

$$



USA.gov is the U.S. government's official web portal to all federal, state and local government web resources and services.